Regional Weather Roundup
Issued by NWS

Home | Current Version | Previous Version | Graphics & Text | Print | Product List | Glossary On
Versions: 1 2 3 4 5 6 7 8 9 10 11 12 13 14 15 16 17 18 19 20 21 22 23 24 25 26 27 28 29 30 31 32 33 34 35 36 37 38 39 40 41 42 43 44 45 46 47 48 49 50
000
ASUS44 KMEG 251000
RWRTN
TENNESSEE HOURLY STATE WEATHER ROUNDUP
NATIONAL WEATHER SERVICE MEMPHIS TN
500 AM CDT MON MAY 25 2015

TNZ002-004-019-021-049-052-054-088>092-251100-
WEST TENNESSEE

CITY           SKY/WX    TMP DP  RH WIND       PRES   REMARKS
MEMPHIS INTL   LGT RAIN  69  66  90 S9        30.03R
NWS MEMPHIS      N/A     68 N/A N/A MISG        N/A
JACKSON        LGT RAIN  68  66  93 CALM      30.06R
DYERSBURG      CLOUDY    66  54  63 CALM      30.05S
PARIS          MOCLDY    64  64 100 S6        30.07S
LEXINGTON      CLOUDY    66  66 100 S7        30.06F
$$

TNZ008-025-027-028-033-062-065-066-251100-
NORTH MIDDLE TENNESSEE

CITY           SKY/WX    TMP DP  RH WIND       PRES   REMARKS
NASHVILLE      CLOUDY    72  59  63 S13G22    30.10S
CLARKSVILLE    RAIN      67  66  97 S9        30.09F FOG
COOKEVILLE     CLEAR     70  57  64 S12       30.16S
CROSSVILLE     FAIR      67  55  65 S10G23    30.23R
$$

TNZ061-075-076-078-094-096-097-251100-
SOUTH MIDDLE TENNESSEE

CITY           SKY/WX    TMP DP  RH WIND       PRES   REMARKS
FAYETTEVILLE   CLEAR    N/A N/A N/A MISG      30.14F
TULLAHOMA      PTCLDY    70  57  64 SE9       30.17S
WINCHESTER     PTCLDY    70  57  64 SE17      30.16F
MCMINNVILLE    CLEAR     72  57  60 S9        30.16S
COLUMBIA       PTCLDY    70  64  83 S7        30.09R
SHELBYVILLE    CLEAR     72  61  68 SE14      30.13F
$$

TNZ017-018-042-046-047-251100-
NORTHEAST TENNESSEE

CITY           SKY/WX    TMP DP  RH WIND       PRES   REMARKS
TRI CITIES     PTCLDY    55  51  86 CALM      30.26S
ELIZABETHTON   SUNNY     54  50  87 CALM      30.28S
$$

TNZ012-013-036-069-073-074-251100-
CENTRAL EAST TENNESSEE

CITY           SKY/WX    TMP DP  RH WIND       PRES   REMARKS
KNOXVILLE      PTCLDY    60  55  83 NE3       30.21R
OAK RIDGE      CLEAR     63  55  75 CALM      30.23S
GATLINBURG     SUNNY     55  52  88 CALM      30.21S
$$

TNZ083-085-099-251100-
SOUTHEAST TENNESSEE

CITY           SKY/WX    TMP DP  RH WIND       PRES   REMARKS
CHATTANOOGA    MOCLDY    69  57  65 SE6       30.22S
$$

SKY/WX REPORTED AS FAIR MEANS FEW OR NO CLOUDS BELOW
12 THOUSAND FEET.



USA.gov is the U.S. government's official web portal to all federal, state and local government web resources and services.